• In Moldova, Republic
  • List of Countries
  • For 7 days
  • Water Temperature
  • Satellite Maps
  • Weather Map
  • Weather Widgets
  • user-avatar
    Login

    Hourly Weather Sankt Polten

    Today, 29 April, Saturday

    Time Temperature Precipitation Wind Pressure Humidity
    00:00 +1°C° 0.1 mm 4 mps 735 mmHg 96%
    01:00 +2°C° 0 mm 3 mps 735 mmHg 95%
    02:00 +2°C° 0 mm 3 mps 736 mmHg 96%
    03:00 +2°C° 0 mm 3 mps 736 mmHg 96%
    04:00 +2°C° 0 mm 3 mps 736 mmHg 96%
    05:00 +3°C° 0 mm 3 mps 736 mmHg 93%
    06:00 +3°C° 0 mm 3 mps 737 mmHg 91%
    07:00 +4°C° 0 mm 3 mps 737 mmHg 88%
    08:00 +7°C° 0 mm 3 mps 737 mmHg 82%
    09:00 +8°C° 0 mm 3 mps 737 mmHg 76%
    10:00 +9°C° 0 mm 3 mps 737 mmHg 70%
    11:00 +10°C° 0.1 mm 3 mps 736 mmHg 67%
    12:00 +11°C° 0.1 mm 3 mps 736 mmHg 63%
    13:00 +11°C° 0.1 mm 3 mps 736 mmHg 60%
    14:00 +12°C° 0.1 mm 3 mps 736 mmHg 60%
    15:00 +13°C° 0.1 mm 2 mps 736 mmHg 59%
    16:00 +13°C° 0.1 mm 2 mps 736 mmHg 59%
    17:00 +9°C° 0 mm 2 mps 735 mmHg 69%
    18:00 +8°C° 0 mm 1 mps 735 mmHg 79%
    19:00 +5°C° 0 mm 1 mps 735 mmHg 89%
    20:00 +4°C° 0 mm 1 mps 736 mmHg 89%
    21:00 +3°C° 0 mm 1 mps 736 mmHg 90%
    22:00 +3°C° 0 mm 1 mps 736 mmHg 90%
    23:00 +2°C° 0 mm 1 mps 736 mmHg 90%

    Tomorrow, 30 April, Sunday

    Time Temperature Precipitation Wind Pressure Humidity
    00:00 +2°C° 0 mm 1 mps 736 mmHg 90%
    01:00 +2°C° 0 mm 1 mps 736 mmHg 90%
    02:00 +2°C° 0 mm 1 mps 737 mmHg 90%
    03:00 +2°C° 0 mm 1 mps 737 mmHg 90%
    04:00 +3°C° 0 mm 1 mps 737 mmHg 90%
    05:00 +5°C° 0 mm 1 mps 737 mmHg 86%
    06:00 +7°C° 0 mm 1 mps 737 mmHg 81%
    07:00 +9°C° 0 mm 1 mps 737 mmHg 76%
    08:00 +10°C° 0 mm 2 mps 737 mmHg 70%
    09:00 +11°C° 0 mm 3 mps 737 mmHg 64%
    10:00 +13°C° 0 mm 3 mps 737 mmHg 58%
    11:00 +14°C° 0 mm 4 mps 736 mmHg 56%
    12:00 +15°C° 0 mm 4 mps 736 mmHg 54%
    13:00 +15°C° 0 mm 5 mps 735 mmHg 52%
    14:00 +15°C° 0 mm 5 mps 735 mmHg 53%
    15:00 +15°C° 0 mm 5 mps 734 mmHg 55%
    16:00 +15°C° 0 mm 5 mps 734 mmHg 56%
    17:00 +13°C° 0 mm 4 mps 734 mmHg 65%
    18:00 +11°C° 0 mm 4 mps 734 mmHg 73%
    19:00 +9°C° 0 mm 3 mps 734 mmHg 81%
    20:00 +8°C° 0 mm 3 mps 734 mmHg 83%
    21:00 +8°C° 0 mm 3 mps 734 mmHg 85%
    22:00 +7°C° 0 mm 3 mps 734 mmHg 88%
    23:00 +7°C° 0 mm 3 mps 734 mmHg 89%

    Day after tomorrow, 1 May, Monday

    Time Temperature Precipitation Wind Pressure Humidity
    00:00 +5°C° 0 mm 3 mps 734 mmHg 90%
    01:00 +5°C° 0 mm 3 mps 734 mmHg 91%
    02:00 +5°C° 0 mm 3 mps 733 mmHg 92%
    03:00 +5°C° 0 mm 3 mps 733 mmHg 93%
    04:00 +5°C° 0 mm 3 mps 733 mmHg 93%
    05:00 +7°C° 0 mm 3 mps 733 mmHg 88%
    06:00 +7°C° 0 mm 4 mps 733 mmHg 83%
    07:00 +8°C° 0 mm 4 mps 733 mmHg 78%
    08:00 +11°C° 0 mm 4 mps 733 mmHg 73%
    09:00 +12°C° 0 mm 4 mps 733 mmHg 67%
    10:00 +14°C° 0 mm 4 mps 733 mmHg 62%
    11:00 +14°C° 0 mm 3 mps 733 mmHg 60%
    12:00 +16°C° 0 mm 3 mps 733 mmHg 58%
    13:00 +17°C° 0 mm 2 mps 732 mmHg 56%
    14:00 +17°C° 0.1 mm 3 mps 732 mmHg 58%
    15:00 +17°C° 0.1 mm 3 mps 733 mmHg 61%
    16:00 +16°C° 0.1 mm 3 mps 733 mmHg 63%
    17:00 +13°C° 0.2 mm 3 mps 733 mmHg 73%
    18:00 +11°C° 0.2 mm 3 mps 733 mmHg 82%
    19:00 +9°C° 0.2 mm 3 mps 734 mmHg 91%
    20:00 +9°C° 0.2 mm 3 mps 734 mmHg 92%
    21:00 +8°C° 0.2 mm 3 mps 735 mmHg 92%
    22:00 +7°C° 0.2 mm 3 mps 735 mmHg 92%
    23:00 +7°C° 0.8 mm 3 mps 736 mmHg 92%

    2 May, Tuesday

    Time Temperature Precipitation Wind Pressure Humidity
    00:00 +7°C° 0.8 mm 3 mps 736 mmHg 93%
    01:00 +5°C° 0.8 mm 3 mps 736 mmHg 94%
    02:00 +5°C° 1.4 mm 3 mps 736 mmHg 94%
    03:00 +5°C° 1.4 mm 3 mps 736 mmHg 94%
    04:00 +5°C° 1.4 mm 3 mps 736 mmHg 95%
    05:00 +5°C° 1.3 mm 3 mps 736 mmHg 95%
    06:00 +5°C° 1.3 mm 3 mps 736 mmHg 95%
    07:00 +5°C° 1.3 mm 3 mps 737 mmHg 95%
    08:00 +7°C° 0.2 mm 3 mps 737 mmHg 91%
    09:00 +8°C° 0.2 mm 3 mps 737 mmHg 87%
    10:00 +9°C° 0.2 mm 3 mps 737 mmHg 83%
    11:00 +11°C° 0.1 mm 3 mps 737 mmHg 77%
    12:00 +12°C° 0.1 mm 3 mps 737 mmHg 70%
    13:00 +13°C° 0.1 mm 3 mps 737 mmHg 63%
    14:00 +14°C° 0 mm 2 mps 737 mmHg 61%
    15:00 +15°C° 0 mm 1 mps 737 mmHg 60%
    16:00 +15°C° 0 mm 1 mps 736 mmHg 58%
    17:00 +13°C° 0 mm 1 mps 736 mmHg 68%
    18:00 +10°C° 0 mm 1 mps 736 mmHg 78%
    19:00 +8°C° 0 mm 1 mps 736 mmHg 88%
    20:00 +8°C° 0 mm 1 mps 736 mmHg 88%
    21:00 +8°C° 0 mm 1 mps 736 mmHg 88%
    22:00 +7°C° 0 mm 2 mps 736 mmHg 88%
    23:00 +7°C° 0 mm 2 mps 736 mmHg 89%

    3 May, Wednesday

    Time Temperature Precipitation Wind Pressure Humidity
    00:00 +7°C° 0 mm 2 mps 735 mmHg 89%
    01:00 +8°C° 0 mm 2 mps 735 mmHg 90%
    02:00 +7°C° 0 mm 2 mps 735 mmHg 92%
    03:00 +7°C° 0 mm 2 mps 734 mmHg 93%
    04:00 +7°C° 0 mm 2 mps 734 mmHg 95%
    05:00 +8°C° 0 mm 2 mps 734 mmHg 93%
    06:00 +9°C° 0 mm 2 mps 733 mmHg 92%
    07:00 +10°C° 0 mm 2 mps 733 mmHg 90%
    08:00 +12°C° 0.1 mm 2 mps 733 mmHg 87%
    09:00 +13°C° 0.1 mm 2 mps 734 mmHg 84%
    10:00 +14°C° 0.1 mm 2 mps 734 mmHg 81%
    11:00 +14°C° 0.2 mm 2 mps 734 mmHg 81%
    12:00 +14°C° 0.2 mm 2 mps 734 mmHg 82%
    13:00 +13°C° 0.2 mm 3 mps 734 mmHg 82%
    14:00 +13°C° 0.2 mm 3 mps 733 mmHg 83%
    15:00 +13°C° 0.2 mm 3 mps 733 mmHg 83%
    16:00 +12°C° 0.2 mm 3 mps 733 mmHg 83%
    17:00 +11°C° 0.1 mm 3 mps 734 mmHg 85%
    18:00 +10°C° 0.1 mm 3 mps 734 mmHg 88%
    19:00 +9°C° 0.1 mm 3 mps 734 mmHg 90%
    20:00 +8°C° 0 mm 2 mps 734 mmHg 91%
    21:00 +8°C° 0 mm 2 mps 735 mmHg 92%
    22:00 +7°C° 0 mm 2 mps 735 mmHg 93%
    23:00 +7°C° 0 mm 2 mps 735 mmHg 93%

    4 May, Thursday

    Time Temperature Precipitation Wind Pressure Humidity
    00:00 +6°C° 0 mm 2 mps 735 mmHg 93%
    01:00 +6°C° 0 mm 2 mps 735 mmHg 94%
    02:00 +6°C° 0 mm 2 mps 735 mmHg 94%
    03:00 +5°C° 0 mm 2 mps 735 mmHg 94%
    04:00 +6°C° 0 mm 1 mps 735 mmHg 95%
    05:00 +8°C° 0 mm 1 mps 735 mmHg 92%
    06:00 +9°C° 0 mm 1 mps 735 mmHg 89%
    07:00 +11°C° 0 mm 1 mps 735 mmHg 86%
    08:00 +12°C° 0 mm 1 mps 735 mmHg 81%
    09:00 +13°C° 0 mm 1 mps 735 mmHg 75%
    10:00 +14°C° 0 mm 1 mps 735 mmHg 70%
    11:00 +15°C° 0.1 mm 1 mps 735 mmHg 69%
    12:00 +15°C° 0.1 mm 1 mps 734 mmHg 67%
    13:00 +16°C° 0.1 mm 1 mps 734 mmHg 66%
    14:00 +16°C° 0.1 mm 1 mps 734 mmHg 66%
    15:00 +16°C° 0.1 mm 1 mps 734 mmHg 67%
    16:00 +16°C° 0.1 mm 1 mps 733 mmHg 67%
    17:00 +14°C° 0.1 mm 1 mps 733 mmHg 76%
    18:00 +12°C° 0.1 mm 1 mps 733 mmHg 85%
    19:00 +10°C° 0.1 mm 1 mps 733 mmHg 93%
    20:00 +8°C° 0 mm 1 mps 733 mmHg 94%
    21:00 +6°C° 0 mm 0 mps 733 mmHg 95%
    22:00 +5°C° 0 mm 0 mps 733 mmHg 96%
    23:00 +6°C° 0 mm 1 mps 733 mmHg 95%
    Show more